User: anonymous   Login
Location: Santa Barbara
(34.4500°N, 119.7700°W)
Time: 12:10:45
(UTC-07:00)
Language:

Cosmos 1626 Rocket - Orbit

View from above orbital plane
View from above orbital plane
View from above satellite
View from above satellite

Ground track
Ground track

The orbit data is extracted from the following two-line orbital elements,

1 15495U 85009B   17141.74114452 +.00000089 +00000-0 +77235-5 0  9994
2 15495 082.5260 212.2403 0021500 059.9469 300.3875 14.83766729746043
Epoch (UTC): 21 May 2017 17:47:14
Eccentricity: 0.0021500
inclination: 82.5260°
perigee height: 602 km
apogee height: 632 km
right ascension of ascending node: 212.2403°
argument of perigee: 59.9469°
revolutions per day: 14.83766729
mean anomaly at epoch: 300.3875°
orbit number at epoch: 74604

The dashed part of the orbit path shows where the satellite is in the earth's shadow,  

DLR